Weather History for Council Bluffs, IA

Change the Weather History Date:

Wednesday, December 12, 2012

  Actual Average Record
Temperature  
Mean Temperature 42 °F -  
Max Temperature 51 °F 38 °F 53 °F (1998)
Min Temperature 32 °F 22 °F -7 °F (2000)
Degree Days  
Heating Degree Days 24    
Moisture  
Dew Point 15 °F    
Average Humidity 36    
Maximum Humidity 55    
Minimum Humidity 21    
Precipitation  
Precipitation 0.00 in - - ()
Sea Level Pressure  
Sea Level Pressure 29.97 in    
Wind  
Wind Speed 17 mph (SSW)    
Max Wind Speed 28 mph    
Max Gust Speed 34 mph    
Visibility 10 miles    
Events      
Averages and records for this station are not official NWS values.
T = Trace of Precipitation, MM = Missing Value Source: NWS Daily Summary

Daily Weather History Graph

Daily Weather History Graph

Search for Another Location

Airport:

Trip Planner

Search our weather history database for the weather conditions in past years. The results will help you decide how hot, cold, wet, or windy it might be!

Date:

Astronomy

Dec. 12, 2012 Rise Set
Actual Time 7:39 AM CST 4:54 PM CST
Civil Twilight 7:08 AM CST 5:25 PM CST
Nautical Twilight 6:33 AM CST 6:00 PM CST
Astronomical Twilight 6:00 AM CST 6:33 PM CST
Moon 6:45 AM CST (12/12) 4:32 PM CST (12/12)
Length of Visible Light 10h 16m
Length of Day
9h 14m
Waning Crescent, 1% of the Moon is Illuminated
Dec 12
Waning Crescent
Dec 13
New
Dec 19
First Quarter
Dec 28
Full
Jan 4
Last Quarter

Hourly Weather History & Observations

Time (CST) Temp. Windchill Dew Point Humidity Pressure Visibility Wind Dir Wind Speed Gust Speed Precip Events Conditions
12:15 AM 33.8 °F 24.3 °F 17.6 °F 52% 30.00 in 10.0 mi SSW 13.8 mph - N/A   Clear
12:35 AM 32.0 °F 22.1 °F 17.6 °F 55% 29.99 in 10.0 mi SSW 13.8 mph 19.6 mph N/A   Clear
12:55 AM 32.0 °F 22.5 °F 17.6 °F 55% 29.99 in 10.0 mi SSW 12.7 mph 18.4 mph N/A   Partly Cloudy
1:15 AM 33.8 °F 23.9 °F 17.6 °F 52% 29.98 in 10.0 mi SSW 15.0 mph - N/A   Clear
1:35 AM 33.8 °F 25.3 °F 17.6 °F 52% 29.98 in 10.0 mi SSW 11.5 mph 18.4 mph N/A   Clear
1:55 AM 33.8 °F 24.3 °F 17.6 °F 52% 29.99 in 10.0 mi SSW 13.8 mph - N/A   Clear
2:15 AM 33.8 °F 24.3 °F 17.6 °F 52% 29.99 in 10.0 mi SSW 13.8 mph 19.6 mph N/A   Clear
2:35 AM 33.8 °F 24.3 °F 17.6 °F 52% 29.99 in 10.0 mi SSW 13.8 mph - N/A   Clear
2:55 AM 33.8 °F 24.3 °F 17.6 °F 52% 29.98 in 10.0 mi SSW 13.8 mph - N/A   Clear
3:15 AM 33.8 °F 24.3 °F 15.8 °F 48% 29.98 in 10.0 mi SSW 13.8 mph - N/A   Clear
3:35 AM 33.8 °F 23.5 °F 15.8 °F 48% 29.98 in 10.0 mi SSW 16.1 mph 21.9 mph N/A   Clear
3:55 AM 33.8 °F 23.2 °F 15.8 °F 48% 29.98 in 10.0 mi SSW 17.3 mph 23.0 mph N/A   Clear
4:15 AM 33.8 °F 23.5 °F 15.8 °F 48% 29.97 in 10.0 mi SSW 16.1 mph 23.0 mph N/A   Clear
4:35 AM 33.8 °F 24.3 °F 15.8 °F 48% 29.97 in 10.0 mi SSW 13.8 mph 21.9 mph N/A   Clear
4:55 AM 33.8 °F 23.5 °F 15.8 °F 48% 29.97 in 10.0 mi SSW 16.1 mph - N/A   Clear
5:15 AM 33.8 °F 23.9 °F 15.8 °F 48% 29.97 in 10.0 mi SSW 15.0 mph - N/A   Clear
5:35 AM 33.8 °F 24.3 °F 15.8 °F 48% 29.97 in 10.0 mi South 13.8 mph - N/A   Clear
5:55 AM 33.8 °F 24.3 °F 15.8 °F 48% 29.96 in 10.0 mi South 13.8 mph - N/A   Clear
6:15 AM 33.8 °F 24.8 °F 14.0 °F 44% 29.97 in 10.0 mi South 12.7 mph 18.4 mph N/A   Clear
6:35 AM 33.8 °F 23.9 °F 14.0 °F 44% 29.98 in 10.0 mi SSW 15.0 mph - N/A   Clear
6:55 AM 33.8 °F 24.3 °F 14.0 °F 44% 29.98 in 10.0 mi South 13.8 mph - N/A   Clear
7:15 AM 32.0 °F 22.1 °F 14.0 °F 48% 29.98 in 10.0 mi South 13.8 mph 19.6 mph N/A   Clear
7:35 AM 32.0 °F 23.0 °F 14.0 °F 48% 29.99 in 10.0 mi South 11.5 mph 19.6 mph N/A   Clear
7:55 AM 32.0 °F 22.5 °F 14.0 °F 48% 29.99 in 10.0 mi South 12.7 mph - N/A   Clear
8:15 AM 32.0 °F 21.6 °F 14.0 °F 48% 30.00 in 10.0 mi South 15.0 mph - N/A   Clear
8:35 AM 33.8 °F 23.9 °F 14.0 °F 44% 30.00 in 10.0 mi SSW 15.0 mph 24.2 mph N/A   Clear
8:55 AM 33.8 °F 24.3 °F 15.8 °F 48% 30.00 in 10.0 mi SSW 13.8 mph 21.9 mph N/A   Clear
9:15 AM 35.6 °F 25.2 °F 14.0 °F 41% 30.00 in 10.0 mi South 18.4 mph 25.3 mph N/A   Clear
9:35 AM 35.6 °F 24.8 °F 15.8 °F 44% 30.00 in 10.0 mi SSW 19.6 mph 26.5 mph N/A   Clear
9:55 AM 37.4 °F 27.5 °F 15.8 °F 41% 30.01 in 10.0 mi SSW 18.4 mph 26.5 mph N/A   Clear
10:15 AM 37.4 °F 26.1 °F 15.8 °F 41% 30.00 in 10.0 mi SSW 24.2 mph 29.9 mph N/A   Clear
10:35 AM 39.2 °F 29.3 °F 15.8 °F 39% 30.00 in 10.0 mi SSW 20.7 mph 27.6 mph N/A   Clear
10:55 AM 41.0 °F 31.4 °F 17.6 °F 39% 29.99 in 10.0 mi SSW 21.9 mph 28.8 mph N/A   Clear
11:15 AM 42.8 °F 33.8 °F 17.6 °F 36% 29.99 in 10.0 mi SSW 21.9 mph 28.8 mph N/A   Clear
11:35 AM 44.6 °F 35.5 °F 17.6 °F 34% 29.99 in 10.0 mi SSW 25.3 mph 31.1 mph N/A   Clear
11:55 AM 46.4 °F 38.3 °F 17.6 °F 32% 29.98 in 10.0 mi SSW 23.0 mph 32.2 mph N/A   Clear
12:15 PM 46.4 °F 38.3 °F 15.8 °F 29% 29.97 in 10.0 mi SSW 23.0 mph 31.1 mph N/A   Clear
12:35 PM 48.2 °F - 15.8 °F 27% 29.96 in 10.0 mi SSW 26.5 mph 34.5 mph N/A   Clear
12:55 PM 50.0 °F - 15.8 °F 26% 29.95 in 10.0 mi SSW 27.6 mph - N/A   Clear
1:15 PM 50.0 °F - 14.0 °F 24% 29.95 in 10.0 mi SSW 20.7 mph 34.5 mph N/A   Clear
1:35 PM 51.8 °F - 14.0 °F 22% 29.95 in 10.0 mi SSW 23.0 mph 34.5 mph N/A   Clear
1:55 PM 51.8 °F - 14.0 °F 22% 29.94 in 10.0 mi SSW 21.9 mph 31.1 mph N/A   Clear
2:15 PM 51.8 °F - 14.0 °F 22% 29.93 in 10.0 mi SSW 24.2 mph 33.4 mph N/A   Clear
2:35 PM 51.8 °F - 14.0 °F 22% 29.92 in 10.0 mi SSW 26.5 mph - N/A   Clear
2:55 PM 51.8 °F - 12.2 °F 21% 29.92 in 10.0 mi SSW 20.7 mph 34.5 mph N/A   Clear
3:15 PM 51.8 °F - 14.0 °F 22% 29.92 in 10.0 mi South 19.6 mph 28.8 mph N/A   Clear
3:35 PM 51.8 °F - 12.2 °F 21% 29.93 in 10.0 mi SSW 24.2 mph 31.1 mph N/A   Clear
3:55 PM 51.8 °F - 12.2 °F 21% 29.93 in 10.0 mi SSW 21.9 mph - N/A   Clear
4:15 PM 51.8 °F - 12.2 °F 21% 29.93 in 10.0 mi SSW 18.4 mph 26.5 mph N/A   Clear
4:35 PM 50.0 °F - 12.2 °F 22% 29.93 in 10.0 mi South 16.1 mph 23.0 mph N/A   Clear
4:55 PM 50.0 °F - 12.2 °F 22% 29.93 in 10.0 mi South 13.8 mph 21.9 mph N/A   Clear
5:15 PM 48.2 °F - 12.2 °F 24% 29.91 in 10.0 mi South 18.4 mph 25.3 mph N/A   Clear
5:35 PM 48.2 °F - 12.2 °F 24% 29.93 in 10.0 mi South 15.0 mph 21.9 mph N/A   Clear
5:55 PM 48.2 °F - 12.2 °F 24% 29.93 in 10.0 mi South 17.3 mph 31.1 mph N/A   Clear
6:15 PM 46.4 °F 40.1 °F 12.2 °F 25% 29.93 in 10.0 mi South 15.0 mph 24.2 mph N/A   Clear
6:35 PM 46.4 °F 39.2 °F 12.2 °F 25% 29.95 in 10.0 mi SSW 18.4 mph 24.2 mph N/A   Clear
6:55 PM 46.4 °F 39.8 °F 14.0 °F 27% 29.96 in 10.0 mi South 16.1 mph 23.0 mph N/A   Clear
7:15 PM 44.6 °F 36.4 °F 14.0 °F 29% 29.96 in 10.0 mi South 20.7 mph 28.8 mph N/A   Clear
7:35 PM 44.6 °F 35.9 °F 14.0 °F 29% 29.96 in 10.0 mi South 23.0 mph - N/A   Clear
7:55 PM 42.8 °F 34.0 °F 14.0 °F 31% 29.96 in 10.0 mi South 20.7 mph - N/A   Clear
8:15 PM 42.8 °F 34.0 °F 14.0 °F 31% 29.96 in 10.0 mi South 20.7 mph 28.8 mph N/A   Clear
8:35 PM 42.8 °F 34.5 °F 14.0 °F 31% 29.97 in 10.0 mi South 18.4 mph 27.6 mph N/A   Clear
8:55 PM 42.8 °F 34.3 °F 12.2 °F 29% 29.98 in 10.0 mi South 19.6 mph - N/A   Clear
9:15 PM 42.8 °F 34.0 °F 12.2 °F 29% 29.97 in 10.0 mi South 20.7 mph 27.6 mph N/A   Clear
9:35 PM 41.0 °F 31.4 °F 12.2 °F 31% 29.97 in 10.0 mi South 21.9 mph 28.8 mph N/A   Clear
9:55 PM 41.0 °F 31.4 °F 12.2 °F 31% 29.97 in 10.0 mi South 21.9 mph 28.8 mph N/A   Clear
10:15 PM 41.0 °F 31.6 °F 12.2 °F 31% 29.97 in 10.0 mi South 20.7 mph 29.9 mph N/A   Clear
10:35 PM 41.0 °F 30.9 °F 12.2 °F 31% 29.97 in 10.0 mi South 24.2 mph 29.9 mph N/A   Clear
10:55 PM 41.0 °F 32.2 °F 12.2 °F 31% 29.98 in 10.0 mi South 18.4 mph 31.1 mph N/A   Clear
11:15 PM 41.0 °F 31.9 °F 12.2 °F 31% 29.98 in 10.0 mi South 19.6 mph 25.3 mph N/A   Clear
11:35 PM 41.0 °F 31.4 °F 12.2 °F 31% 29.98 in 10.0 mi South 21.9 mph 33.4 mph N/A   Clear
11:55 PM 39.2 °F 30.2 °F 12.2 °F 33% 29.98 in 10.0 mi South 17.3 mph 33.4 mph N/A   Clear